Weather History for West Plains, MO

Change the Weather History Date:

Saturday, March 16, 2013

  Actual Average Record
Temperature  
Mean Temperature 56 °F 48 °F  
Max Temperature 69 °F 60 °F 82 °F (1982)
Min Temperature 42 °F 36 °F 16 °F (1988)
Degree Days  
Heating Degree Days 9 18  
Month to date heating degree days 369 325  
Since 1 July heating degree days 3681 3789  
Cooling Degree Days 0 0  
Month to date cooling degree days 0 0  
Year to date cooling degree days 0 0  
Growing Degree Days 6 (Base 50)    
Moisture  
Dew Point 41 °F    
Average Humidity 55    
Maximum Humidity 70    
Minimum Humidity 40    
Precipitation  
Precipitation 0.00 in 0.15 in 1.48 in (2014)
Month to date precipitation 1.81 2.03  
Year to date precipitation 9.13 7.59  
Sea Level Pressure  
Sea Level Pressure 29.83 in    
Wind  
Wind Speed 11 mph (NNW)    
Max Wind Speed 20 mph    
Max Gust Speed 28 mph    
Visibility 9 miles    
Events      
T = Trace of Precipitation, MM = Missing Value Source: NWS Daily Summary

Daily Weather History Graph

Daily Weather History Graph

Search for Another Location

Airport:

Trip Planner

Search our weather history database for the weather conditions in past years. The results will help you decide how hot, cold, wet, or windy it might be!

Date:

Astronomy

Mar. 16, 2013 Rise Set
Actual Time 7:16 AM CDT 7:16 PM CDT
Civil Twilight 6:50 AM CDT 7:41 PM CDT
Nautical Twilight 6:20 AM CDT 8:12 PM CDT
Astronomical Twilight 5:50 AM CDT 8:42 PM CDT
Moon 9:54 AM CDT (3/16) No Moon Set
Length of Visible Light 12h 51m
Length of Day
11h 59m
Waxing Crescent, 23% of the Moon is Illuminated
Mar 16
Waxing Crescent
Mar 19
First Quarter
Mar 27
Full
Apr 2
Last Quarter
Apr 10
New

Hourly Weather History & Observations

Time (CDT) Temp. Windchill Dew Point Humidity Pressure Visibility Wind Dir Wind Speed Gust Speed Precip Events Conditions
12:53 AM 64.0 °F - 43.0 °F 46% 29.75 in 10.0 mi SW 11.5 mph 18.4 mph N/A   Clear
1:53 AM 63.0 °F - 43.0 °F 48% 29.75 in 10.0 mi SW 10.4 mph - N/A   Clear
2:53 AM 62.1 °F - 43.0 °F 50% 29.75 in 10.0 mi SW 11.5 mph - N/A   Clear
3:53 AM 60.1 °F - 42.1 °F 51% 29.74 in 10.0 mi SW 8.1 mph - N/A   Clear
4:53 AM 57.9 °F - 42.1 °F 56% 29.74 in 10.0 mi SW 8.1 mph - N/A   Clear
5:53 AM 57.0 °F - 42.1 °F 57% 29.76 in 10.0 mi West 6.9 mph - N/A   Clear
6:53 AM 55.0 °F - 42.1 °F 62% 29.79 in 10.0 mi WSW 4.6 mph - N/A   Clear
7:53 AM 55.9 °F - 42.1 °F 60% 29.81 in 10.0 mi WSW 4.6 mph - N/A   Clear
8:53 AM 59.0 °F - 43.0 °F 55% 29.82 in 10.0 mi West 5.8 mph - N/A   Clear
9:53 AM 66.0 °F - 44.1 °F 45% 29.83 in 10.0 mi WNW 10.4 mph - N/A   Clear
10:53 AM 66.9 °F - 45.0 °F 45% 29.84 in 10.0 mi NNW 9.2 mph - N/A   Clear
11:53 AM 66.9 °F - 45.0 °F 45% 29.85 in 10.0 mi North 9.2 mph - N/A   Clear
12:53 PM 66.9 °F - 43.0 °F 42% 29.87 in 10.0 mi North 8.1 mph - N/A   Clear
1:53 PM 68.0 °F - 46.0 °F 45% 29.86 in 10.0 mi NNE 13.8 mph - N/A   Clear
2:53 PM 64.9 °F - 39.9 °F 40% 29.84 in 10.0 mi NE 11.5 mph - N/A   Clear
3:53 PM 63.0 °F - 41.0 °F 45% 29.84 in 10.0 mi NNE 12.7 mph - N/A   Clear
4:53 PM 61.0 °F - 39.9 °F 46% 29.85 in 10.0 mi NNE 17.3 mph 21.9 mph N/A   Clear
5:53 PM 55.0 °F - 37.9 °F 53% 29.85 in 8.0 mi NE 16.1 mph - N/A   Clear
6:53 PM 51.1 °F - 37.0 °F 59% 29.87 in 7.0 mi NE 16.1 mph 27.6 mph N/A   Clear
7:53 PM 48.0 °F - 36.0 °F 63% 29.89 in 8.0 mi NE 18.4 mph - N/A   Overcast
8:53 PM 46.9 °F - 35.1 °F 63% 29.90 in 8.0 mi NE 12.7 mph - N/A   Overcast
9:53 PM 45.0 °F 39.7 °F 35.1 °F 68% 29.91 in 7.0 mi NE 10.4 mph - N/A   Scattered Clouds
10:53 PM 44.1 °F 39.5 °F 35.1 °F 71% 29.91 in 6.0 mi ENE 8.1 mph - N/A   Haze
11:53 PM 44.1 °F 39.0 °F 35.1 °F 71% 29.93 in 7.0 mi NE 9.2 mph - N/A   Overcast